Oradea, Romania

1:38 AM EEST on June 29, 2017 (GMT +0300)
Oradea

Weather History for LROD - January, 2013

Change the Weather History Date:

Monday, January 21, 2013

  Actual Average Record
Temperature  
Mean Temperature 55 °F -  
Max Temperature 60 °F - - ()
Min Temperature 50 °F - - ()
Degree Days  
Heating Degree Days 10    
Growing Degree Days 5 (Base 50)    
Moisture  
Dew Point 41 °F    
Average Humidity 59    
Maximum Humidity 82    
Minimum Humidity 45    
Precipitation  
Precipitation 0.00 in - - ()
Sea Level Pressure  
Sea Level Pressure 29.47 in    
Wind  
Wind Speed 13 mph ()    
Max Wind Speed 22 mph    
Max Gust Speed 33 mph    
Visibility 6.2 miles    
Events Rain    
T = Trace of Precipitation, MM = Missing Value Source: Averaged Metar Reports

Daily Weather History Graph

Daily Weather History Graph

Search for Another Location

Airport or City:

Trip Planner

Search our weather history database for the weather conditions in past years. The results will help you decide how hot, cold, wet, or windy it might be!

Date:

Astronomy

Jan. 21, 2013 Rise Set
Actual Time 8:09 AM EET 5:18 PM EET
Civil Twilight 7:35 AM EET 5:52 PM EET
Nautical Twilight 6:58 AM EET 6:29 PM EET
Astronomical Twilight 6:21 AM EET 7:05 PM EET
Moon 12:45 PM EET (1/21) 3:20 AM EET (1/21)
Length of Visible Light 10h 16m
Length of Day
9h 09m
Waxing Gibbous, 72% of the Moon is Illuminated
Jan 21
Waxing Gibbous
Jan 27
Full
Feb 3
Last Quarter
Feb 10
New
Feb 17
First Quarter

Hourly Weather History & Observations

Time (EET) Temp. Dew Point Humidity Pressure Visibility Wind Dir Wind Speed Gust Speed Precip Events Conditions
12:00 AM 50.0 °F 44.6 °F 82% 29.53 in 6.2 mi SSE 11.5 mph - N/A   Mostly Cloudy
1:00 AM 51.8 °F 44.6 °F 76% 29.53 in 6.2 mi South 11.5 mph - N/A   Mostly Cloudy
2:00 AM 53.6 °F 44.6 °F 72% 29.53 in 6.2 mi South 13.8 mph - N/A   Mostly Cloudy
3:00 AM 53.6 °F 44.6 °F 72% 29.53 in 6.2 mi South 18.4 mph - N/A   Mostly Cloudy
4:00 AM 53.6 °F 46.4 °F 77% 29.50 in 6.2 mi South 18.4 mph - N/A Rain Light Rain Showers
5:00 AM 53.6 °F 44.6 °F 72% 29.50 in - South 13.8 mph - N/A   Clear
5:30 AM 55.4 °F 44.6 °F 67% 29.50 in - South 16.1 mph - N/A   Clear
6:00 AM 55.4 °F 44.6 °F 67% 29.50 in - South 16.1 mph - N/A   Clear
6:30 AM 53.6 °F 44.6 °F 72% 29.50 in 6.2 mi South 16.1 mph - N/A Rain Light Rain
7:00 AM 55.4 °F 42.8 °F 63% 29.50 in 6.2 mi South 13.8 mph - N/A Rain Light Rain
7:30 AM 53.6 °F 42.8 °F 67% 29.50 in 6.2 mi SSE 11.5 mph - N/A Rain Light Rain
8:00 AM 53.6 °F 42.8 °F 67% 29.50 in 6.2 mi South 13.8 mph - N/A   Unknown
8:30 AM 55.4 °F 42.8 °F 63% 29.50 in - South 16.1 mph - N/A   Clear
9:00 AM 55.4 °F 42.8 °F 63% 29.50 in - South 16.1 mph - N/A   Clear
9:30 AM 55.4 °F 41.0 °F 58% 29.50 in - South 16.1 mph - N/A   Clear
10:00 AM 55.4 °F 41.0 °F 58% 29.50 in - South 19.6 mph - N/A   Clear
10:30 AM 57.2 °F 41.0 °F 55% 29.50 in - South 18.4 mph - N/A   Clear
11:00 AM 57.2 °F 41.0 °F 55% 29.50 in - South 19.6 mph - N/A   Clear
11:30 AM 59.0 °F 41.0 °F 51% 29.50 in - South 18.4 mph - N/A   Clear
12:00 PM 60.8 °F 41.0 °F 48% 29.47 in - South 19.6 mph - N/A   Clear
12:30 PM 60.8 °F 41.0 °F 48% 29.47 in - South 21.9 mph - N/A   Clear
1:00 PM 60.8 °F 41.0 °F 48% 29.47 in - South 21.9 mph 33.4 mph N/A   Clear
1:30 PM 60.8 °F 41.0 °F 48% 29.47 in - South 21.9 mph - N/A   Clear
2:00 PM 59.0 °F 41.0 °F 51% 29.47 in - South 21.9 mph - N/A   Clear
2:30 PM 60.8 °F 41.0 °F 48% 29.47 in - South 19.6 mph - N/A   Clear
3:00 PM 60.8 °F 41.0 °F 48% 29.44 in - South 18.4 mph - N/A   Clear
3:30 PM 60.8 °F 39.2 °F 45% 29.44 in - South 19.6 mph - N/A   Clear
4:00 PM 59.0 °F 39.2 °F 48% 29.44 in - South 16.1 mph - N/A   Clear
4:30 PM 57.2 °F 39.2 °F 51% 29.44 in - South 16.1 mph - N/A   Clear
5:00 PM 57.2 °F 37.4 °F 48% 29.44 in - South 11.5 mph - N/A   Clear
5:30 PM 57.2 °F 37.4 °F 48% 29.44 in - South 11.5 mph - N/A   Clear
6:00 PM 55.4 °F 39.2 °F 54% 29.44 in - South 11.5 mph - N/A   Clear
6:30 PM 53.6 °F 39.2 °F 58% 29.44 in - SSW 6.9 mph - N/A   Clear
7:00 PM 53.6 °F 39.2 °F 58% 29.44 in 6.2 mi South 6.9 mph - N/A Rain Light Rain
7:30 PM 53.6 °F 39.2 °F 58% 29.44 in 6.2 mi South 6.9 mph - N/A Rain Light Rain
8:00 PM 53.6 °F 39.2 °F 58% 29.44 in - East 4.6 mph - N/A   Clear
8:30 PM 53.6 °F 39.2 °F 58% 29.42 in - East 6.9 mph - N/A   Clear
9:00 PM 51.8 °F 39.2 °F 62% 29.44 in - East 4.6 mph - N/A   Clear
9:30 PM 53.6 °F 39.2 °F 58% 29.44 in - ENE 4.6 mph - N/A   Clear
10:00 PM 51.8 °F 39.2 °F 62% 29.44 in - Variable 2.3 mph - N/A   Clear
10:30 PM 51.8 °F 39.2 °F 62% 29.42 in 6.2 mi East 2.3 mph - N/A   Mostly Cloudy
11:00 PM 51.8 °F 39.2 °F 62% 29.42 in 6.2 mi Variable 2.3 mph - N/A   Mostly Cloudy